User: anonymous   Login
Location: Eaton
(41.3139°N, 82.0207°W)
Time: 21:48:23
(UTC+00:00)
Language:

deb Kosmos-397 - Orbit

View from above orbital plane
View from above orbital plane
View from above satellite
View from above satellite

Ground track
Ground track

The orbit data is extracted from the following two-line orbital elements,

1 20090U 71015DU  22022.28674766  .00002154  00000-0  54886-3 0  9995
2 20090  65.6901 321.3749 0516141  75.8359  75.7450 13.94476437458221
Epoch (UTC): 22 January 2022 06:52:54
Eccentricity: 0.0516141
inclination: 65.6901°
perigee height: 536 km
apogee height: 1289 km
right ascension of ascending node: 321.3749°
argument of perigee: 75.8359°
revolutions per day: 13.94476437
mean anomaly at epoch: 75.7450°
orbit number at epoch: 45822

The dashed part of the orbit path shows where the satellite is in the earth's shadow,  

DLR